This is the latest recevied weather packets stored in our database for station/object W7TJC. If no packets are shown the sender has not sent any weather packets the latest 10 day(s).
| Time | Temp. | Humidity | Pressure | Rain* | Wind** | Luminosity | Snow |
|---|---|---|---|---|---|---|---|
| 1777753130 | 20.56° C | 62% | 1016.9 hPa | 0 mm | - | 654 W/m² | - |
| 1777752826 | 20° C | 66% | 1017.1 hPa | 0 mm | - | 672 W/m² | - |
| 1777752523 | 20.56° C | 64% | 1016.9 hPa | 0 mm | - | 687 W/m² | - |
| 1777752218 | 20° C | 65% | 1017.1 hPa | 0 mm | - | 650 W/m² | - |
| 1777751917 | 20° C | 67% | 1017 hPa | 0 mm | - | 575 W/m² | - |
| 1777751613 | 20° C | 66% | 1017.2 hPa | 0 mm | - | 567 W/m² | - |
| 1777751310 | 18.89° C | 68% | 1017.2 hPa | 0 mm | - | 624 W/m² | - |
| 1777751007 | 18.33° C | 70% | 1017.2 hPa | 0 mm | - | 665 W/m² | - |
| 1777750702 | 18.89° C | 67% | 1017.1 hPa | 0 mm | - | 654 W/m² | - |
| 1777750400 | 19.44° C | 68% | 1017.5 hPa | 0 mm | - | 608 W/m² | - |
| 1777750095 | 18.89° C | 67% | 1017.4 hPa | 0 mm | - | 707 W/m² | - |
| 1777749792 | 18.33° C | 67% | 1017.3 hPa | 0 mm | - | 711 W/m² | - |
| 1777749490 | 18.89° C | 67% | 1017.3 hPa | 0 mm | - | 739 W/m² | - |
| 1777749187 | 18.89° C | 66% | 1017.3 hPa | 0 mm | - | 733 W/m² | - |
| 1777748884 | 19.44° C | 65% | 1017.5 hPa | 0 mm | - | 691 W/m² | - |
| 1777748582 | 19.44° C | 65% | 1017.3 hPa | 0 mm | - | 700 W/m² | - |
| 1777748277 | 18.89° C | 64% | 1017.5 hPa | 0 mm | - | 730 W/m² | - |
| 1777747973 | 19.44° C | 64% | 1017.6 hPa | 0 mm | - | 801 W/m² | - |
| 1777747670 | 18.89° C | 65% | 1017.5 hPa | 0 mm | - | 834 W/m² | - |
| 1777747365 | 18.33° C | 65% | 1017.7 hPa | 0 mm | - | 799 W/m² | - |
| 1777747063 | 18.89° C | 65% | 1017.5 hPa | 0 mm | - | 796 W/m² | - |
| 1777746759 | 18.33° C | 67% | 1017.5 hPa | 0 mm | - | 781 W/m² | - |
| 1777746454 | 18.33° C | 68% | 1017.6 hPa | 0 mm | - | 777 W/m² | - |
| 1777746150 | 17.78° C | 67% | 1017.7 hPa | 0 mm | - | 706 W/m² | - |
| 1777745846 | 17.78° C | 69% | 1017.4 hPa | 0 mm | - | 635 W/m² | - |
* Rain latest hour (hover to see other rain measurements)
** Current wind speed in m/s (hover to see current wind gust speed)